Tracking 19795 objects as of 17-Jul-2019
HD Live streaming from Space Station
objects crossing your sky now

OSCAR 15 (UOSAT 4)

Track OSCAR 15 (UOSAT 4) now!
10-day predictions
OSCAR 15 (UOSAT 4) is classified as:


NORAD ID: 20438
Int'l Code: 1990-005C
Perigee: 788.2 km
Apogee: 802.6 km
Inclination: 98.8 °
Period: 100.6 minutes
Semi major axis: 7166 km
RCS: 0.311 m2 (medium)
Launch date: January 22, 1990
Source: United Kingdom (UK)
Launch site: FRENCH GUIANA (FRGUI)

Uplink (MHz):
Downlink (MHz):
Beacon (MHz): 435.120
Mode: CW
Call sign:
Status: Reentered

aabbcc
Your satellite tracking list
Your tracking list is empty




NASA's NSSDC Master Catalog

Two Line Element Set (TLE):
1 20438U 90005C   19197.47977910 -.00000022  00000-0  91527-5 0  9996
2 20438  98.8159 161.4734 0010081 165.0889 306.5041 14.31037805538874
Source of the keplerian elements: AFSPC